Location: Binningen
(47.7924°N, 8.7261°E)
Time: 21:05:19
(UTC+00:00)

COSMOS 2455 - Pass Details

Date: 17 May 2021
Orbit: 902 x 908 km, 67.1° (Epoch: 24 June)

Event Time Altitude Azimuth Distance (km) Brightness Sun altitude
Rises 23:13:59 0° 326° (NW) 3,544 6.9 -22.6°
Reaches altitude 10° 23:16:31 10° 328° (NNW) 2,600 6.0 -22.6°
Maximum altitude 23:22:34 77° 55° (NE) 937 2.9 -22.7°
Enters shadow 23:25:11 36° 134° (SE) 1,409 3.5 -22.7°
